Location: *
(2.5500°S, 65.9667°W)
Time: 04:01:49
(UTC+00:00)

Okean O Rocket - Pass Details

Date: 05 June 2022
Orbit: 623 x 643 km, 98.2° (Epoch: 04 July)

Event Time Altitude Azimuth Distance (km) Brightness Sun altitude
Exits shadow 23:19:24 18° 144° (SE) 1,556 3.1 -14.1°
Maximum altitude 23:22:22 44° 78° (ENE) 866 1.9 -14.8°
Drops below altitude 10° 23:26:28 10° 6° (N) 1,983 4.4 -15.7°
Sets 23:28:43 0° 360° (N) 2,885 5.3 -16.3°
